Other Public Products
Issued by NWS Grand Forks, ND

Home | Current Version | Previous Version | Graphics & Text | Print | Product List | Glossary On
Versions: 1 2 3 4 5 6 7 8 9 10 11 12 13 14 15 16 17 18 19 20 21 22 23 24 25 26 27 28 29 30 31 32 33 34 35 36 37 38 39 40 41 42 43 44 45 46 47 48 49 50
000
FPUS83 KFGF 282010
OPUFGF
PRAIRIE TO PINES WEATHER ROUNDUP
NATIONAL WEATHER SERVICE EASTERN NORTH DAKOTA/GRAND FORKS ND
300 PM CDT THU MAY 28 2015

 **SATELLITE DATA USED TO AUGMENT SKY COVER AT AUTOMATED STATIONS**
 *****  WEATHER ACROSS EASTERN NORTH DAKOTA  *****

CITY           SKY/WX    TMP DP  RH WIND       PRES   REMARKS
GRAND FORKS    CLOUDY    76  63  64 SW9G18    29.80F
GRAND FORKS AF PTSUNNY   78  63  61 S9        29.80F
GRAND CITY NWS   N/A     77 N/A N/A SW9         N/A
BUXTON         NOT AVBL
DEVILS LAKE    PTSUNNY   73  59  60 W10       29.81F
FARGO          SUNNY     85  60  42 SW20G28   29.81F
WAHPETON ARPT  CLEAR     81  52  36 S26       29.84F
$$

 *****  WEATHER ACROSS CENTRAL AND WESTERN NORTH DAKOTA  *****

CITY           SKY/WX    TMP DP  RH WIND       PRES   REMARKS
JAMESTOWN      PTSUNNY   71  62  73 S10       29.84R
BISMARCK       PTSUNNY   77  56  48 NW8       29.85F
MINOT          CLOUDY    70  57  63 N10       29.86S
MINOT AFB      PTSUNNY   70  69  96 N9        29.86S
GARRISON         N/A     72  57  59 NW15      29.86S
WILLISTON      PTSUNNY   72  54  53 N16       29.89S
DICKINSON      PTSUNNY   74  53  48 NW9G17    29.88F
HETTINGER      PTSUNNY   69  54  58 N5        29.91F
$$

 *****  OTHER OBSERVATIONS NORTHEAST NORTH DAKOTA  *****

CITY           SKY/WX    TMP DP  RH WIND       PRES   REMARKS
WALHALLA         N/A     70  64  83 MISG      29.82F THUNDER
LANGDON        CLOUDY    72  59  64 W7        29.84S
CAVALIER       MOCLDY    72  61  68 S3        29.82F
GRAFTON        MOCLDY    75  63  64 S9        29.82F
CANDO          CLOUDY    72  59  64 W8        29.84F
FORT TOTTEN    NOT AVBL
ROLLA          CLOUDY    66  57  72 W6        29.87S
RUGBY          NOT AVBL
 ***** THE ABOVE OBSERVATIONS ARE NON NWS ARE NOT QUALITY
        CONTROLLED AND MAY MIS-REPORT RAIN FOR SNOW...
$$

 *****  OTHER OBSERVATIONS SOUTHEAST NORTH DAKOTA *****

CITY           SKY/WX    TMP DP  RH WIND       PRES   REMARKS
COOPERSTOWN    NOT AVBL
VALLEY CITY    MOCLDY    75  63  64 SW16G24   29.84R
OAKES            N/A     82  64  54 S24G30    29.82S
GWINNER        NOT AVBL
SHEYENNE NWR     N/A     84  61  45 S16       29.95S
BUFFALO        NOT AVBL
WYNDMERE         N/A     84  57  39 S22         N/A
 ***** THE ABOVE OBSERVATIONS ARE NON NWS ARE NOT QUALITY
       CONTROLLED AND MAY MIS-REPORT RAIN FOR SNOW...
$$

  *****  WEATHER ACROSS NORTHERN MINNESOTA  *****

CITY           SKY/WX    TMP DP  RH WIND       PRES   REMARKS
FLAG ISLAND    CLOUDY    61  57  88 S9        29.87F
WARROAD        CLOUDY    63  57  82 S7        29.89S
ROSEAU         MOSUNNY   66  61  82 S8        29.87F
HALLOCK        PTSUNNY   72  63  73 SW8       29.83F
THF RVR FALLS  PTSUNNY   73  64  73 SW12      29.84F
HALSTAD        NOT AVBL
FOSSTON        PTSUNNY   77  63  61 SW18G25   29.85F
BAUDETTE       LGT RAIN  59  56  89 SE10      29.90F FOG
WASKISH        PTSUNNY   66  61  82 E10       29.88F
CROOKSTON      MOSUNNY   79  63  57 SW17      29.82F
$$
  *****  WEATHER ACROSS CENTRAL AND WEST MINNESOTA  *****

CITY           SKY/WX    TMP DP  RH WIND       PRES   REMARKS
BEMIDJI        MOSUNNY   74  62  66 S10G17    29.87F
PARK RAPIDS    MOSUNNY   84  50  30 S21G31    29.91S
WADENA         SUNNY     77  52  41 S16G24    29.92F
DETROIT LAKES  SUNNY     79  59  50 S20G25    29.89F
MOORHEAD       MOSUNNY   82  57  42 S16G26    29.83F
FERGUS FALLS   MOSUNNY   81  55  41 S25G33    29.88F
ELBOW LAKE     FAIR      80  56  43 S22G30    29.90F
MORRIS MN      MOSUNNY   82  54  36 S24G32    29.90F
STAPLES        MOSUNNY   79  50  36 SW17G23   29.94S
WHEATON        SUNNY     81  55  41 S17G28    29.87F
$$
  *****  WEATHER ELSEWHERE ACROSS MINNESOTA  *****

CITY           SKY/WX    TMP DP  RH WIND       PRES   REMARKS
DULUTH         MOSUNNY   52  45  77 SE17      30.03F
INTRNTL FALLS  CLOUDY    61  54  77 SE10      29.92F
ELY            NOT AVBL
CLOQUET        MOSUNNY   59  46  63 E10       30.01F
BRAINERD       MOSUNNY   80  51  36 SW21G29   29.95S
HIBBING        MOSUNNY   74  52  46 S9G18     29.96F
ALEXANDRIA     PTSUNNY   77  54  44 S18       29.95F
SAINT CLOUD    PTSUNNY   81  52  36 S22G28    29.96F
MINNEAPOLIS    MOSUNNY   82  52  35 S16G28    30.00F
$$

  *****  WEATHER ACROSS SOUTH DAKOTA  *****

CITY           SKY/WX    TMP DP  RH WIND       PRES   REMARKS
SIOUX FALLS    MOSUNNY   81  58  45 S16G24    29.92F
BROOKINGS      MOSUNNY   79  57  47 S21G31    29.93F
WATERTOWN      MOSUNNY   79  60  52 S24G31    29.90F
HURON            N/A    N/A N/A N/A MISG      29.85F
SISSETON         N/A     83  59  44 SW23G35   29.84F
ABERDEEN       MOSUNNY   84  59  42 S20G29    29.82F
MITCHELL       MOSUNNY   84  57  39 S15G31    29.87F
PIERRE         PTSUNNY   80  61  52 W8        29.83F
MOBRIDGE       MOSUNNY   77  59  53 VRB3      29.83F
RAPID CITY     PTSUNNY   72  54  53 N9        29.92F
$$

  *****  SOME WEATHER IN NEARBY STATES *****

CITY           SKY/WX    TMP DP  RH WIND       PRES   REMARKS
GLASGOW MT     TSTM      58  49  72 E6        29.96R
GREAT FALLS MT CLOUDY    56  51  84 NW18G26   30.15R
CHEYENNE WY    PTSUNNY   63  40  42 W10       30.07S
SCOTTSBLUFF NE PTSUNNY   68  49  50 W6G20     29.96F
OMAHA NE       LGT RAIN  71  65  81 SE17      30.02F
DES MOINES IA  LGT RAIN  73  61  65 S10       30.06F
DAVENPORT IA   MOSUNNY   83  51  33 SE16      30.11F
CHICAGO IL     MOSUNNY   82  54  37 E12       30.14F
EAU CLAIRE WI  MOSUNNY   84  54  35 SW14      30.04F
LA CROSSE WI   PTSUNNY   82  54  37 S15       30.07F
$$

  *****  SOME NATIONAL WEATHER *****

CITY           SKY/WX    TMP DP  RH WIND       PRES   REMARKS
LA GUARDIA NY  PTSUNNY   80  66  62 S13       30.12F
RALEIGH NC     PTSUNNY   84  69  60 VRB6      30.17F
ATLANTA GA     LGT RAIN  69  64  84 CALM      30.18S
NEW ORLEANS LA PTSUNNY   87  70  56 N7        30.07F HX  92
OKLAHOMA CITY  PTSUNNY   82  69  64 S12       30.00F
ALBUQUERQUE NM MOSUNNY   80  27  14 W9        30.08F
SALT LAKE CITY MOSUNNY   68  46  45 NW13      30.10F
LOS ANGELES CA MOSUNNY   66  56  70 W10       29.99F
BOISE ID       SUNNY     74  43  32 W10       30.08F
SEATTLE WA     MOSUNNY   72  55  55 W6        30.06F
$$

*** WEATHER ACROSS MANITOBA...SASKATCHEWAN AND ONTARIO ***
                ***ONTARIO***

CITY           SKY/WX    TMP DP  RH WIND       PRES   REMARKS
GERALDTON      PTSUNNY   59  39  47 E10G18    30.12F
THUNDER BAY    CLOUDY    50  43  76 E14G22    30.12F
SIOUX LOOKOUT  LGT RAIN  52  50  93 SE6G21    29.93F
TORONTO        MOSUNNY   77  54  44 S12       30.23F
BIG TROUT LK   PTSUNNY   55  28  35 SE13G23   30.08F
PICKLE LAKE    LGT RAIN  48  43  81 SE9       30.06S
DRYDEN         CLOUDY    54  52  94 SE15G25   29.91F
KENORA         CLOUDY    57  55  94 S8        29.89F
$$
                *** MANITOBA***

CITY           SKY/WX    TMP DP  RH WIND       PRES   REMARKS
BRANDON        CLOUDY    68  55  64 VRB2      29.86S
DAUPHIN        MOSUNNY   64  59  82 SW8       29.85F
ISLAND LAKE    CLOUDY    63  39  42 E8G17     29.90F
PILOT MOUND      N/A     66  57  72 SW6         N/A
THE PAS        LGT RAIN  43  41  93 N14G25    30.03R
THOMPSON       LGT SNOW  36  34  93 NE10G17   30.12R
WINNIPEG       PTSUNNY   64  61  88 CALM      29.85F
LYNN LAKE      LGT RAIN  36  32  87 N20G28    30.23R
CHURCHILL      CLOUDY    32  27  80 NE15      30.37S WCI  22
GILLAM         SNOW      30  28  93 E10G24    30.20S VSB 1/2 WCI  21
$$
                ***SASKATCHEWAN***

CITY           SKY/WX    TMP DP  RH WIND       PRES   REMARKS
ESTEVAN        CLOUDY    70  55  60 N8        29.90F
KINDERSLEY     MOSUNNY   50  36  57 N23G31    30.20R
LLOYDMINSTER   MOSUNNY   52  30  43 N14G22    30.26S
PRINCE ALBERT  PTSUNNY   50  34  53 N25G37    30.18R
REGINA         PTSUNNY   59  46  63 N31G39    29.98R



USA.gov is the U.S. government's official web portal to all federal, state and local government web resources and services.